Bennington, VT

6:26 AM EDT on June 25, 2017 (GMT -0400)
Morse State

Weather History for KDDH - March, 2014

Change the Weather History Date:

Friday, March 21, 2014

  Actual Average Record
Temperature  
Mean Temperature 27 °F 35 °F  
Max Temperature 34 °F 46 °F 77 °F (2012)
Min Temperature 20 °F 24 °F 1 °F (2007)
Degree Days  
Heating Degree Days 38 30  
Month to date heating degree days 874 706  
Since 1 July heating degree days 6122 5957  
Cooling Degree Days 0 0  
Month to date cooling degree days 0 0  
Year to date cooling degree days 0 0  
Moisture  
Dew Point 21 °F    
Average Humidity 65    
Maximum Humidity 74    
Minimum Humidity 56    
Precipitation  
Precipitation T in 0.12 in 0.10 in (2001)
Month to date precipitation 1.27 2.07  
Year to date precipitation 7.13 7.06  
Sea Level Pressure  
Sea Level Pressure 29.91 in    
Wind  
Wind Speed 10 mph (West)    
Max Wind Speed 20 mph    
Max Gust Speed 32 mph    
Visibility 10 miles    
Events Snow    
T = Trace of Precipitation, MM = Missing Value Source: NWS Daily Summary

Daily Weather History Graph

Daily Weather History Graph

Search for Another Location

Airport or City:

Trip Planner

Search our weather history database for the weather conditions in past years. The results will help you decide how hot, cold, wet, or windy it might be!

Date:

Astronomy

Mar. 21, 2014 Rise Set
Actual Time 6:54 AM EDT 7:06 PM EDT
Civil Twilight 6:26 AM EDT 7:34 PM EDT
Nautical Twilight 5:53 AM EDT 8:07 PM EDT
Astronomical Twilight 5:19 AM EDT 8:41 PM EDT
Moon No Moon Rise 9:37 AM EDT (3/21)
Length of Visible Light 13h 08m
Length of Day
12h 11m
Waning Gibbous, 75% of the Moon is Illuminated
Mar 21
Waning Gibbous
Mar 23
Last Quarter
Mar 30
New
Apr 7
First Quarter
Apr 15
Full

Hourly Weather History & Observations

Time (EDT) Temp. Windchill Dew Point Humidity Pressure Visibility Wind Dir Wind Speed Gust Speed Precip Events Conditions
12:54 AM 33.1 °F 24.9 °F 23.0 °F 66% 29.80 in 10.0 mi West 10.4 mph 20.7 mph N/A   Overcast
1:54 AM 32.0 °F 23.0 °F 24.1 °F 73% 29.80 in 6.0 mi WSW 11.5 mph 19.6 mph 0.00 in Snow Light Snow
2:54 AM 32.0 °F 24.8 °F 24.1 °F 73% 29.80 in 8.0 mi WSW 8.1 mph 20.7 mph 0.00 in Snow Light Snow
3:54 AM 32.0 °F 23.0 °F 23.0 °F 69% 29.80 in 10.0 mi West 11.5 mph 21.9 mph 0.00 in   Overcast
4:54 AM 32.0 °F 23.0 °F 21.9 °F 66% 29.81 in 10.0 mi WNW 11.5 mph 20.7 mph N/A   Mostly Cloudy
5:45 AM 30.9 °F 22.2 °F 23.0 °F 72% 29.80 in 10.0 mi West 10.4 mph 17.3 mph N/A   Overcast
5:54 AM 30.9 °F 21.7 °F 23.0 °F 72% 29.83 in 10.0 mi WNW 11.5 mph 16.1 mph N/A   Overcast
6:54 AM 30.9 °F 25.2 °F 23.0 °F 72% 29.85 in 10.0 mi WSW 5.8 mph 21.9 mph N/A   Overcast
7:38 AM 30.9 °F 22.8 °F 23.0 °F 72% 29.83 in 10.0 mi WNW 9.2 mph 21.9 mph N/A   Overcast
7:54 AM 30.0 °F 20.5 °F 21.9 °F 72% 29.86 in 10.0 mi West 11.5 mph 18.4 mph N/A   Mostly Cloudy
8:25 AM 30.9 °F 22.8 °F 23.0 °F 72% 29.85 in 10.0 mi West 9.2 mph 20.7 mph N/A   Overcast
8:54 AM 30.9 °F 19.8 °F 21.9 °F 69% 29.88 in 10.0 mi West 16.1 mph 20.7 mph N/A   Overcast
9:54 AM 30.9 °F 20.2 °F 21.0 °F 67% 29.89 in 10.0 mi West 15.0 mph 23.0 mph N/A   Overcast
10:54 AM 32.0 °F 22.5 °F 21.0 °F 64% 29.91 in 10.0 mi West 12.7 mph 20.7 mph N/A   Overcast
11:20 AM 33.1 °F 25.5 °F 21.0 °F 61% 29.89 in 10.0 mi WNW 9.2 mph 18.4 mph N/A   Overcast
11:54 AM 32.0 °F 22.5 °F 21.0 °F 64% 29.92 in 10.0 mi WNW 12.7 mph 18.4 mph N/A   Overcast
12:30 PM 33.1 °F 23.9 °F 21.0 °F 61% 29.90 in 10.0 mi WNW 12.7 mph 25.3 mph N/A   Overcast
12:54 PM 33.1 °F 22.6 °F 21.0 °F 61% 29.93 in 10.0 mi West 16.1 mph 20.7 mph N/A   Overcast
1:29 PM 33.1 °F 23.4 °F 21.0 °F 61% 29.91 in 10.0 mi West 13.8 mph 20.7 mph N/A   Overcast
1:44 PM 33.1 °F 23.0 °F 21.0 °F 61% 29.91 in 10.0 mi West 15.0 mph 23.0 mph N/A   Overcast
1:54 PM 33.1 °F 23.9 °F 21.0 °F 61% 29.94 in 10.0 mi West 12.7 mph 26.5 mph N/A   Overcast
2:54 PM 33.1 °F 24.9 °F 21.0 °F 61% 29.94 in 10.0 mi West 10.4 mph 24.2 mph N/A   Overcast
3:54 PM 33.1 °F 23.9 °F 21.0 °F 61% 29.96 in 10.0 mi West 12.7 mph 21.9 mph N/A   Overcast
4:54 PM 33.1 °F 23.0 °F 21.0 °F 61% 29.97 in 10.0 mi West 15.0 mph 24.2 mph N/A   Overcast
5:54 PM 33.1 °F 24.9 °F 19.9 °F 59% 30.00 in 10.0 mi West 10.4 mph 21.9 mph N/A   Scattered Clouds
6:54 PM 32.0 °F 24.8 °F 19.0 °F 59% 30.02 in 10.0 mi WSW 8.1 mph - N/A   Clear
7:54 PM 30.0 °F 23.2 °F 18.0 °F 61% 30.04 in 10.0 mi SW 6.9 mph - N/A   Clear
8:54 PM 28.9 °F 22.8 °F 17.1 °F 61% 30.04 in 10.0 mi SW 5.8 mph - N/A   Clear
9:54 PM 28.9 °F 25.2 °F 17.1 °F 61% 30.05 in 10.0 mi Variable 3.5 mph - N/A   Clear
10:54 PM 25.0 °F - 17.1 °F 72% 30.05 in 10.0 mi Calm Calm - N/A   Clear
11:54 PM 23.0 °F 18.4 °F 16.0 °F 74% 30.04 in 10.0 mi SSE 3.5 mph - N/A   Clear